Victoria, TX

1:40 PM CST on December 14, 2019 (GMT -0600)
Victoria Regional

Weather History for KVCT - October, 2019

Change the Weather History Date:

Sunday, October 20, 2019

  Actual Average Record
Temperature  
Mean Temperature 82 °F 71 °F  
Max Temperature 91 °F 83 °F 93 °F (1947)
Min Temperature 72 °F 60 °F 38 °F (1964)
Degree Days  
Heating Degree Days 0 1  
Month to date heating degree days 0 5  
Since 1 July heating degree days 0 6  
Cooling Degree Days 17 7  
Month to date cooling degree days 264 179  
Year to date cooling degree days 3529 2977  
Growing Degree Days 32 (Base 50)    
Moisture  
Dew Point 75 °F    
Average Humidity 86    
Maximum Humidity 97    
Minimum Humidity 56    
Precipitation  
Precipitation 0.00 in 0.17 in 2.25 in (1993)
Month to date precipitation 1.68 3.06  
Year to date precipitation 21.04 34.09  
Snow  
Snow 0.00 in 0.00 in 0.00 in (2002)
Month to date snowfall 0.0 0.0  
Since 1 July snowfall 0.0 0.0  
Since 1 September snowfall 0.0 0.0  
Snow Depth 0.00 in    
Sea Level Pressure  
Sea Level Pressure 29.77 in    
Wind  
Wind Speed 6 mph ()    
Max Wind Speed 24 mph    
Max Gust Speed 29 mph    
Visibility 6.5 miles    
Events Fog    
T = Trace of Precipitation, MM = Missing Value Source: Averaged Metar Reports

Daily Weather History Graph

Daily Weather History Graph

Search for Another Location

Airport or City:

Astronomy

Oct. 20, 2019 Rise Set
Actual Time 7:31 AM CDT 6:52 PM CDT
Civil Twilight 7:07 AM CDT 7:16 PM CDT
Nautical Twilight 6:40 AM CDT 7:44 PM CDT
Astronomical Twilight 6:12 AM CDT 8:11 PM CDT
Moon No Moon Rise 1:42 PM CDT (10/20)
Length of Visible Light 12h 09m
Length of Day
11h 21m
Waning Gibbous, 59% of the Moon is Illuminated
Oct 20
Waning Gibbous
Oct 21
Last Quarter
Oct 27
New
Nov 4
First Quarter
Nov 12
Full

Hourly Weather History & Observations

Time (CDT) Temp. Heat Index Dew Point Humidity Pressure Visibility Wind Dir Wind Speed Gust Speed Precip Events Conditions
12:51 AM 77.0 °F - 73.9 °F 90% 29.77 in 9.0 mi South 8.1 mph - N/A   Clear
1:51 AM 75.9 °F - 73.9 °F 94% 29.78 in 8.0 mi South 3.5 mph - N/A   Clear
2:51 AM 75.0 °F - 73.0 °F 94% 29.77 in 6.0 mi South 3.5 mph - N/A   Clear
3:51 AM 75.0 °F - 73.0 °F 94% 29.77 in 4.0 mi South 3.5 mph - N/A   Clear
4:03 AM 73.9 °F - 73.0 °F 97% 29.77 in 1.5 mi Calm Calm - N/A   Partly Cloudy
4:07 AM 75.0 °F - 73.0 °F 94% 29.77 in 0.8 mi Calm Calm - N/A   Scattered Clouds
4:14 AM 75.0 °F - 73.0 °F 94% 29.77 in 0.5 mi Calm Calm - N/A Fog Fog
4:37 AM 75.0 °F - 72.0 °F 90% 29.77 in 1.0 mi SSE 3.5 mph - N/A   Overcast
4:51 AM 73.0 °F - 72.0 °F 96% 29.77 in 0.8 mi Calm Calm - N/A   Overcast
5:13 AM 72.0 °F - 71.1 °F 97% 29.77 in 0.2 mi Calm Calm - N/A Fog Fog
5:23 AM 72.0 °F - 71.1 °F 97% 29.78 in 0.2 mi Calm Calm - N/A Fog Fog
5:46 AM 73.4 °F - 71.6 °F 94% 29.79 in 0.5 mi NE 3.5 mph - N/A Fog Fog
5:51 AM 73.9 °F - 72.0 °F 93% 29.78 in 0.5 mi Calm Calm - N/A Fog Fog
6:11 AM 73.9 °F - 72.0 °F 93% 29.79 in 1.2 mi NE 3.5 mph - N/A   Overcast
6:26 AM 73.9 °F - 73.0 °F 97% 29.80 in 1.5 mi NE 4.6 mph - N/A   Overcast
6:51 AM 75.0 °F - 73.9 °F 96% 29.80 in 5.0 mi Calm Calm - N/A   Overcast
7:03 AM 75.9 °F - 73.9 °F 94% 29.80 in 5.0 mi Calm Calm - N/A   Overcast
7:51 AM 75.9 °F - 73.9 °F 94% 29.80 in 5.0 mi East 3.5 mph - N/A   Overcast
8:51 AM 78.1 °F - 75.9 °F 93% 29.82 in 6.0 mi ESE 3.5 mph - N/A   Overcast
8:58 AM 78.1 °F - 75.9 °F 93% 29.82 in 6.0 mi Calm Calm - N/A   Overcast
9:32 AM 79.0 °F - 77.0 °F 94% 29.84 in 6.0 mi SE 3.5 mph - N/A   Overcast
9:51 AM 80.1 °F 85.8 °F 77.0 °F 90% 29.83 in 9.0 mi SSE 4.6 mph - N/A   Overcast
10:51 AM 84.0 °F 92.6 °F 75.9 °F 76% 29.83 in 10.0 mi South 9.2 mph - N/A   Mostly Cloudy
11:07 AM 86.0 °F 95.1 °F 75.0 °F 70% 29.82 in 10.0 mi South 10.4 mph 18.4 mph N/A   Scattered Clouds
11:51 AM 86.0 °F 93.8 °F 73.9 °F 67% 29.81 in 10.0 mi South 11.5 mph - N/A   Partly Cloudy
12:51 PM 90.0 °F 99.0 °F 73.9 °F 59% 29.79 in 10.0 mi SSE 17.3 mph - N/A   Partly Cloudy
1:51 PM 91.0 °F 100.4 °F 73.9 °F 57% 29.76 in 10.0 mi SSE 18.4 mph 26.5 mph N/A   Partly Cloudy
2:51 PM 88.0 °F 96.5 °F 73.9 °F 63% 29.73 in 10.0 mi SSE 19.6 mph - N/A   Scattered Clouds
3:51 PM 89.1 °F 97.0 °F 73.0 °F 59% 29.73 in 10.0 mi SSE 20.7 mph 28.8 mph N/A   Mostly Cloudy
4:51 PM 88.0 °F 97.5 °F 75.0 °F 65% 29.73 in 10.0 mi SSE 18.4 mph - N/A   Partly Cloudy
5:51 PM 84.9 °F 93.3 °F 75.0 °F 72% 29.73 in 10.0 mi SSE 21.9 mph - N/A   Mostly Cloudy
6:51 PM 82.9 °F 90.8 °F 75.9 °F 79% 29.73 in 10.0 mi SSE 19.6 mph 26.5 mph N/A   Scattered Clouds
7:51 PM 82.0 °F 90.2 °F 77.0 °F 85% 29.73 in 10.0 mi SSE 16.1 mph - N/A   Mostly Cloudy
8:00 PM 82.0 °F 90.2 °F 77.0 °F 85% 29.74 in 10.0 mi SSE 15.0 mph - N/A   Mostly Cloudy
8:51 PM 82.0 °F 90.2 °F 77.0 °F 85% 29.74 in 10.0 mi SSE 10.4 mph - N/A   Mostly Cloudy
9:01 PM 81.0 °F 87.9 °F 77.0 °F 88% 29.75 in 10.0 mi South 12.7 mph - N/A   Mostly Cloudy
9:36 PM 81.0 °F 88.6 °F 78.1 °F 91% 29.75 in 10.0 mi South 12.7 mph - N/A   Partly Cloudy
9:51 PM 81.0 °F 87.9 °F 77.0 °F 88% 29.74 in 10.0 mi South 13.8 mph - N/A   Partly Cloudy
10:51 PM 81.0 °F 87.9 °F 77.0 °F 88% 29.75 in 9.0 mi South 11.5 mph - N/A   Scattered Clouds
11:08 PM 81.0 °F 87.9 °F 77.0 °F 88% 29.76 in 9.0 mi South 10.4 mph - N/A   Mostly Cloudy
11:46 PM 80.6 °F 87.1 °F 77.0 °F 89% 29.76 in 9.0 mi South 9.2 mph - N/A   Scattered Clouds
11:51 PM 80.1 °F 85.8 °F 77.0 °F 90% 29.75 in 9.0 mi South 10.4 mph - N/A   Mostly Cloudy